Gassville, AR

5:20 AM CST on January 24, 2017 (GMT -0600)
Baxter County Regional

Weather History for KBPK - October, 2013

Change the Weather History Date:

Tuesday, October 15, 2013

  Actual Average (KFLP) Record (KFLP)
Temperature  
Mean Temperature 62 °F -  
Max Temperature 68 °F 69 °F 89 °F (2015)
Min Temperature 55 °F 46 °F 37 °F (2001)
Degree Days  
Heating Degree Days 4    
Growing Degree Days 12 (Base 50)    
Moisture  
Dew Point 60 °F    
Average Humidity 90    
Maximum Humidity 100    
Minimum Humidity 72    
Precipitation  
Precipitation 0.25 in - - ()
Sea Level Pressure  
Sea Level Pressure 29.95 in    
Wind  
Wind Speed 4 mph (SSE)    
Max Wind Speed 8 mph    
Max Gust Speed -    
Visibility 6 miles    
Events Rain    
Averages and records for this station are not official NWS values.
T = Trace of Precipitation, MM = Missing Value Source: NWS Daily Summary

Daily Weather History Graph

Daily Weather History Graph

Search for Another Location

Airport or City:

Trip Planner

Search our weather history database for the weather conditions in past years. The results will help you decide how hot, cold, wet, or windy it might be!

Date:

Astronomy

Oct. 15, 2013 Rise Set
Actual Time 7:17 AM CDT 6:33 PM CDT
Civil Twilight 6:51 AM CDT 6:59 PM CDT
Nautical Twilight 6:21 AM CDT 7:29 PM CDT
Astronomical Twilight 5:51 AM CDT 7:58 PM CDT
Moon 4:34 PM CDT (10/15) 3:45 AM CDT (10/15)
Length of Visible Light 12h 08m
Length of Day
11h 16m
Waxing Gibbous, 88% of the Moon is Illuminated
Oct 15
Waxing Gibbous
Oct 18
Full
Oct 26
Last Quarter
Nov 3
New
Nov 9
First Quarter

Hourly Weather History & Observations

Time (CDT) Temp. Dew Point Humidity Pressure Visibility Wind Dir Wind Speed Gust Speed Precip Events Conditions
12:53 AM 62.1 °F 59.0 °F 90% 30.00 in 6.0 mi ESE 5.8 mph - N/A   Mostly Cloudy
1:53 AM 62.1 °F 60.1 °F 93% 29.98 in 6.0 mi SSE 4.6 mph - 0.00 in   Overcast
2:53 AM 62.1 °F 59.0 °F 90% 29.95 in 5.0 mi SE 5.8 mph - 0.00 in   Overcast
3:53 AM 63.0 °F 60.1 °F 90% 29.94 in 5.0 mi SSE 5.8 mph - N/A   Overcast
4:53 AM 62.1 °F 59.0 °F 90% 29.92 in 6.0 mi South 4.6 mph - N/A   Partly Cloudy
5:53 AM 63.0 °F 59.0 °F 87% 29.91 in 6.0 mi SSE 4.6 mph - N/A   Overcast
6:53 AM 64.0 °F 60.1 °F 87% 29.92 in 6.0 mi South 8.1 mph - 0.01 in Rain Light Rain
7:53 AM 63.0 °F 61.0 °F 93% 29.93 in 4.0 mi South 6.9 mph - 0.06 in Rain Light Rain
8:17 AM 62.6 °F 62.6 °F 100% 29.96 in 2.5 mi Calm Calm - 0.03 in Rain Rain
8:25 AM 62.6 °F 62.6 °F 100% 29.96 in 1.2 mi SW 3.5 mph - 0.03 in Rain Rain
8:53 AM 64.0 °F 62.1 °F 93% 29.95 in 2.0 mi SSW 5.8 mph - 0.06 in Rain Rain
9:23 AM 64.4 °F 62.6 °F 94% 29.97 in 2.0 mi SSE 5.8 mph - N/A Rain Light Rain
9:26 AM 64.4 °F 62.6 °F 94% 29.96 in 1.5 mi SE 4.6 mph - N/A Rain Light Rain
9:40 AM 64.4 °F 62.6 °F 94% 29.95 in 2.0 mi SSE 6.9 mph - N/A Rain Light Rain
9:53 AM 64.9 °F 63.0 °F 93% 29.94 in 2.5 mi Variable 3.5 mph - N/A Rain Light Rain
10:01 AM 64.4 °F 62.6 °F 94% 29.95 in 3.0 mi ESE 5.8 mph - 0.00 in Rain Light Rain
10:19 AM 64.4 °F 62.6 °F 94% 29.95 in 4.0 mi Calm Calm - 0.01 in Rain Light Rain
10:53 AM 64.9 °F 63.0 °F 93% 29.95 in 5.0 mi Calm Calm - 0.03 in Rain Light Rain
11:28 AM 66.2 °F 64.4 °F 94% 29.95 in 4.0 mi Calm Calm - 0.01 in Rain Light Rain
11:53 AM 66.0 °F 64.0 °F 93% 29.94 in 5.0 mi Calm Calm - 0.02 in Rain Light Rain
12:53 PM 66.9 °F 64.0 °F 90% 29.93 in 6.0 mi Variable 3.5 mph - 0.01 in   Overcast
1:53 PM 66.9 °F 64.0 °F 90% 29.92 in 7.0 mi WSW 3.5 mph - 0.02 in   Overcast
2:40 PM 68.0 °F 64.4 °F 88% 29.92 in 6.0 mi Calm Calm - N/A   Overcast
2:53 PM 66.0 °F 64.0 °F 93% 29.91 in 6.0 mi Variable 6.9 mph - 0.00 in Rain Light Rain
3:05 PM 64.4 °F 62.6 °F 94% 29.93 in 5.0 mi Variable 4.6 mph - 0.01 in   Overcast
3:26 PM 64.4 °F 62.6 °F 94% 29.93 in 2.5 mi NW 3.5 mph - 0.01 in Rain Light Rain
3:48 PM 64.4 °F 62.6 °F 94% 29.94 in 5.0 mi Variable 4.6 mph - 0.01 in   Overcast
3:53 PM 64.0 °F 62.1 °F 93% 29.92 in 5.0 mi Variable 4.6 mph - 0.01 in   Overcast
4:06 PM 64.4 °F 62.6 °F 94% 29.94 in 7.0 mi Variable 3.5 mph - N/A   Overcast
4:53 PM 64.0 °F 61.0 °F 90% 29.93 in 7.0 mi Calm Calm - 0.01 in   Overcast
5:07 PM 62.6 °F 60.8 °F 94% 29.94 in 7.0 mi Calm Calm - N/A   Overcast
5:24 PM 62.6 °F 60.8 °F 94% 29.95 in 8.0 mi Calm Calm - N/A   Overcast
5:53 PM 63.0 °F 60.1 °F 90% 29.93 in 8.0 mi Calm Calm - N/A   Overcast
6:53 PM 63.0 °F 59.0 °F 87% 29.96 in 10.0 mi Calm Calm - 0.01 in   Overcast
7:13 PM 62.6 °F 59.0 °F 88% 29.98 in 10.0 mi Variable 4.6 mph - N/A   Overcast
7:27 PM 62.6 °F 57.2 °F 82% 29.99 in 10.0 mi Variable 4.6 mph - N/A   Overcast
7:53 PM 61.0 °F 57.0 °F 87% 29.99 in 9.0 mi Variable 4.6 mph - 0.00 in Rain Light Rain
8:53 PM 59.0 °F 50.0 °F 72% 30.00 in 10.0 mi Variable 3.5 mph - 0.00 in   Overcast
9:53 PM 55.9 °F 48.0 °F 75% 30.02 in 10.0 mi NNW 5.8 mph - 0.01 in   Overcast
10:53 PM 55.0 °F 48.0 °F 77% 30.02 in 10.0 mi Calm Calm - 0.00 in   Overcast
11:53 PM 55.0 °F 48.9 °F 80% 30.03 in 9.0 mi Calm Calm - 0.00 in Rain Light Rain